GFSMA_500_spd_000.txt.gz
Wind_Speed
17 15 19 22 38 29 29 28 28 25 22 20 18 15 17 17 13 13 12 18 14 15 15 15 15 16 17 14 14 7 9 11 11 7 6 2 4 7 8 9 8 6 4
21 17 20 16 33 34 34 31 29 27 23 21 20 18 16 16 15 14 17 18 18 18 16 15 15 13 13 13 11 10 13 11 11 1 3 4 7 6 8 9 9 6 4
19 19 18 18 24 35 34 36 32 31 25 24 21 16 15 16 15 14 14 13 16 18 17 16 18 18 12 12 13 9 11 10 2 4 4 4 5 8 9 10 10 8 7
19 18 19 18 18 29 33 36 32 33 27 26 23 19 17 15 16 14 11 14 14 14 15 16 19 21 16 11 11 8 9 2 8 4 5 7 8 9 10 10 10 10 9
24 21 20 22 21 24 35 37 34 36 33 30 25 22 20 19 19 16 15 15 15 15 15 16 17 20 15 12 11 11 10 9 8 8 9 10 10 11 12 12 11 9 11
28 25 23 24 22 21 35 39 37 35 36 34 25 24 22 20 19 18 15 17 17 17 17 16 20 21 16 14 15 12 12 13 10 14 10 12 12 14 15 14 13 12 11
30 29 25 25 24 21 25 35 39 38 33 27 27 26 24 21 20 19 17 18 19 20 19 16 25 24 11 11 13 14 16 16 14 14 11 13 12 18 18 17 15 12 13
31 32 30 27 25 24 27 33 32 40 41 35 31 26 24 21 20 19 19 20 21 21 19 16 19 17 16 19 14 14 15 15 14 17 14 14 17 18 20 20 12 15 15
27 27 30 31 28 27 28 30 31 34 40 38 35 29 26 24 20 21 21 21 22 23 25 21 17 16 17 18 16 17 18 17 16 14 16 17 19 20 21 16 17 18 18
28 27 27 33 32 28 28 29 30 35 34 33 36 32 30 25 21 19 22 21 21 25 26 21 17 15 16 16 17 18 21 19 17 19 21 21 21 22 23 22 19 20 21
23 24 23 29 31 29 29 29 30 37 35 28 35 28 25 23 21 22 24 23 23 24 24 19 18 17 16 15 16 19 20 21 21 23 23 24 27 28 27 23 23 22 21
19 20 21 24 29 29 29 30 29 38 35 32 30 23 22 25 22 21 21 23 24 24 22 18 20 19 19 18 19 19 20 21 23 25 25 26 27 27 27 26 26 21 18
12 14 16 21 24 27 28 29 28 30 31 31 28 23 23 22 22 24 24 23 22 21 20 21 22 23 22 20 20 22 23 24 25 27 27 27 28 29 29 27 23 24 22
11 14 15 19 22 25 27 28 29 34 33 31 25 27 26 25 29 26 25 21 21 23 23 21 22 27 25 24 25 25 27 27 27 28 28 28 28 28 27 25 26 28 29
8 11 14 16 19 22 24 27 29 31 35 34 29 31 27 28 29 29 32 28 27 24 22 22 23 26 26 24 22 21 23 25 26 26 24 26 28 29 27 27 27 29 29
3 7 10 12 15 19 22 24 25 30 32 33 32 28 26 24 26 24 25 22 27 26 26 26 24 25 24 22 27 26 27 28 26 28 31 31 31 32 31 33 32 31 29
3 4 5 7 12 17 20 22 21 25 25 24 25 22 23 25 23 19 29 24 25 27 27 25 23 26 27 26 30 27 28 29 29 31 33 33 32 30 27 27 26 27 25
2 3 3 8 9 13 15 17 16 18 24 28 28 26 28 27 26 26 29 30 27 28 30 26 26 28 29 28 31 31 29 29 31 33 33 32 33 31 27 26 26 25 26
5 7 6 5 9 10 9 12 16 21 25 27 28 29 30 31 31 33 22 27 27 27 27 23 25 30 32 32 32 36 34 35 36 33 30 29 26 25 27 25 26 27 31
12 10 4 9 11 14 16 18 20 22 26 23 31 32 32 32 33 32 29 25 21 20 23 26 26 27 31 31 33 33 36 30 28 25 24 22 20 21 22 23 26 29 30
10 8 7 9 10 11 13 18 21 26 30 28 31 31 34 34 30 29 31 29 29 29 31 29 26 25 25 30 29 26 23 21 22 21 23 25 24 25 25 26 30 31 34
9 9 10 10 13 10 10 11 14 19 23 24 28 31 33 34 30 25 29 31 33 36 32 26 24 27 26 27 28 26 24 27 25 26 29 29 28 30 31 32 34 36 38
14 11 12 15 15 16 17 18 17 16 19 21 22 25 26 27 29 32 29 28 28 27 27 29 28 28 29 30 31 32 34 34 32 31 34 38 37 38 40 42 40 41 45
18 20 19 19 20 20 21 22 22 23 23 24 24 26 28 30 30 26 27 27 28 27 25 26 29 33 33 33 34 35 35 36 38 38 38 41 43 44 46 49 49 48 46
23 25 23 22 21 22 24 23 23 25 26 27 29 30 30 29 28 27 27 27 28 29 32 34 35 35 36 39 41 41 42 45 44 45 43 43 45 47 49 50 49 47 45
21 21 22 21 23 25 23 23 24 26 27 30 32 33 33 34 33 31 30 30 32 34 35 35 38 44 41 44 45 46 42 45 47 47 47 46 49 49 46 44 45 47 49

GFSMA_500_spd_003.txt.gz
Wind_Speed
19 16 15 16 21 28 32 29 27 25 23 20 19 17 18 18 21 17 15 15 15 15 15 13 13 14 14 13 11 12 7 7 10 13 3 2 3 5 7 8 6 4 3
20 19 18 20 26 23 39 35 28 28 23 23 21 20 19 20 19 15 17 15 18 16 15 15 15 15 13 9 10 11 13 12 11 2 3 2 1 4 6 8 8 5 3
19 19 18 17 20 24 31 34 33 33 30 24 22 20 24 17 20 19 17 17 19 18 18 17 17 17 15 14 12 11 10 9 5 1 1 2 3 4 6 6 8 8 6
19 18 17 18 19 21 26 37 38 34 31 29 26 23 25 16 18 18 17 16 14 16 16 17 18 18 18 19 18 11 7 5 7 5 3 3 5 5 6 5 6 7 6
24 22 20 20 21 19 16 30 38 38 33 32 29 23 22 21 19 18 16 18 14 15 18 14 13 14 14 19 18 14 9 8 11 9 5 7 7 6 8 8 11 8 8
27 26 24 22 22 20 18 21 37 39 37 32 31 27 26 25 24 20 18 20 19 18 19 17 11 14 19 19 21 17 15 12 12 10 9 11 8 9 14 12 12 11 8
30 28 27 25 22 21 20 19 32 37 38 33 33 32 27 28 26 24 23 20 18 19 19 17 17 16 25 19 20 20 18 17 16 13 11 11 11 10 15 16 15 13 9
32 30 28 26 24 24 22 20 27 34 37 38 33 35 30 29 27 25 20 18 19 18 21 19 20 18 16 15 17 18 16 15 14 13 14 13 13 14 17 17 16 12 16
22 30 30 29 27 24 22 20 20 30 34 36 34 33 31 28 24 23 18 19 18 19 21 22 24 23 19 16 15 16 18 16 16 16 14 12 14 18 19 18 18 17 18
19 23 27 27 29 28 24 21 22 27 30 33 38 38 33 24 22 21 21 21 19 19 21 22 23 18 18 11 12 14 15 15 16 17 16 17 19 21 23 19 23 23 21
14 19 23 22 23 27 28 25 23 23 24 29 30 38 38 34 32 26 22 19 18 20 21 22 21 19 17 15 13 11 12 13 15 18 18 19 21 18 24 26 26 26 21
10 16 19 22 24 27 30 27 24 23 28 29 29 29 34 37 31 28 20 21 19 19 22 24 21 18 16 17 16 14 14 14 15 17 18 19 21 23 22 25 22 25 25
10 13 17 19 19 23 27 27 25 25 26 29 31 32 27 30 23 25 27 21 19 20 20 21 17 18 18 18 18 18 18 19 21 20 21 21 24 25 25 26 26 25 24
6 8 10 13 17 20 23 23 24 25 23 25 33 32 29 24 22 24 27 21 23 20 21 21 22 20 21 21 17 19 22 23 20 19 20 21 22 24 24 25 24 25 24
8 7 9 12 14 18 19 19 21 23 25 25 28 29 29 27 24 21 21 25 27 26 24 24 19 18 14 20 20 19 20 18 16 18 19 21 22 25 26 26 27 27 29
3 4 6 8 11 14 14 17 19 21 20 22 29 26 27 26 28 19 20 22 26 25 25 24 27 25 24 27 23 21 20 20 19 20 22 24 27 28 28 28 26 25 26
5 3 3 8 10 11 13 14 15 18 22 27 28 24 27 30 28 26 24 26 25 22 18 22 26 26 27 22 22 26 29 28 20 18 21 23 26 29 29 28 26 25 22
7 7 2 4 6 7 8 12 13 18 19 20 26 29 27 29 27 26 26 23 21 31 30 28 29 24 26 30 26 24 25 27 25 27 29 30 31 32 29 27 24 24 21
8 4 1 3 5 6 9 10 11 12 15 18 18 19 23 28 29 31 31 31 30 26 25 25 25 24 29 27 28 31 32 31 34 32 35 32 31 28 23 21 19 21 23
7 7 2 6 6 7 10 11 12 12 12 15 19 22 23 29 30 32 33 33 32 28 24 21 23 26 27 29 31 33 33 32 32 35 31 28 29 23 20 21 23 26 26
4 4 4 5 4 5 7 10 15 16 20 23 25 26 24 29 30 34 35 32 30 28 27 29 25 28 31 32 32 34 31 32 26 24 23 24 24 25 25 27 29 30 31
4 6 5 5 5 6 6 7 7 9 14 17 21 28 28 30 30 33 32 32 31 28 30 31 34 35 34 32 30 31 35 31 25 27 28 30 30 30 32 33 34 35 37
6 8 9 11 14 13 13 14 15 16 15 16 16 18 18 24 24 25 25 26 27 30 30 31 31 30 32 35 37 37 32 30 32 34 35 34 34 34 35 38 39 41 44
13 15 18 19 17 16 16 17 17 17 18 19 20 21 21 22 24 26 27 29 30 30 30 30 32 32 36 36 34 36 38 38 39 38 39 40 41 41 41 42 44 44 44
21 21 22 18 16 14 16 18 19 21 22 22 21 22 24 25 26 28 28 27 30 30 30 30 30 32 34 36 39 41 43 46 46 47 47 49 49 50 52 46 46 47 48
24 24 24 20 20 18 19 20 22 22 23 25 25 26 28 28 28 28 29 29 30 30 31 33 35 34 36 39 43 45 48 46 46 48 48 45 48 47 47 48 48 47 42

GFSMA_500_spd_006.txt.gz
Wind_Speed
19 25 23 21 19 21 31 28 24 21 20 23 21 18 19 19 19 20 21 15 16 14 13 14 14 14 13 10 12 11 9 6 8 11 4 2 2 3 6 8 8 7 6
22 23 22 21 20 25 28 31 30 26 25 28 21 22 20 18 19 23 20 19 16 15 15 16 15 16 15 10 9 9 11 12 9 6 4 2 1 2 3 5 7 7 6
25 25 25 24 24 27 28 29 37 32 28 27 23 24 21 21 22 23 23 17 17 18 19 17 16 18 17 15 12 13 12 9 9 7 5 5 4 1 2 4 5 6 7
24 24 25 25 26 26 30 33 28 39 33 29 25 27 25 23 26 23 15 13 15 17 19 17 17 19 19 19 17 17 14 9 4 10 6 5 6 4 1 3 5 6 8
27 27 26 26 25 25 25 27 27 37 36 32 33 31 27 26 24 22 14 15 16 16 17 15 16 14 15 15 13 17 12 10 10 12 13 8 7 5 3 6 7 9 10
30 30 31 30 28 25 24 23 22 34 36 34 35 32 30 30 23 14 14 16 16 18 17 18 18 16 14 15 19 19 18 15 15 12 13 13 11 10 11 9 10 11 11
29 27 29 32 31 27 25 23 20 28 35 35 35 33 30 26 24 20 20 21 19 21 21 18 17 17 17 20 21 14 17 20 20 18 16 14 14 13 12 11 12 11 13
20 27 27 30 33 30 25 22 23 20 32 37 39 36 31 31 27 25 25 25 25 25 22 20 20 19 18 20 17 17 19 20 20 21 18 15 15 15 15 15 16 14 13
21 23 27 31 30 30 25 24 23 21 27 36 42 37 34 31 31 29 27 25 25 24 22 20 19 20 21 23 21 19 17 22 22 21 18 16 17 16 15 18 19 20 16
17 19 21 30 31 28 28 25 22 19 23 36 38 38 35 30 33 32 29 25 24 25 23 20 19 20 19 19 12 10 11 16 23 21 18 17 19 20 20 19 20 18 24
11 14 20 25 28 28 29 25 21 19 21 30 34 34 37 34 31 31 26 26 25 25 24 21 19 19 19 17 17 14 13 13 12 15 17 18 19 18 19 20 20 25 23
5 6 11 18 22 25 28 28 26 21 22 25 29 31 32 38 37 33 29 29 25 26 22 21 19 22 21 18 17 15 15 15 16 16 17 19 20 19 22 25 20 26 25
3 3 7 13 18 22 24 27 29 25 24 22 27 26 29 31 34 37 38 38 28 22 20 20 21 22 21 21 19 16 19 19 20 20 20 21 21 21 22 25 25 24 24
4 3 7 12 16 20 22 24 27 26 23 23 24 28 29 29 26 29 32 29 25 21 19 23 22 24 22 21 20 19 21 23 23 26 23 21 22 21 22 23 21 23 24
5 4 7 8 10 15 17 18 21 23 23 24 25 26 30 32 29 25 31 21 24 24 18 24 21 22 23 18 22 15 20 23 24 24 21 19 19 20 23 23 27 28 28
10 6 2 7 9 11 13 16 18 19 20 24 24 24 28 31 31 28 23 22 19 20 19 23 25 29 26 26 29 24 22 22 19 26 20 22 20 24 27 29 29 28 27
7 8 9 6 8 10 12 14 16 17 20 21 20 21 22 21 22 24 22 22 23 23 22 26 26 29 27 23 23 30 26 25 28 29 24 26 21 25 27 30 33 33 31
4 5 3 3 3 8 11 10 12 14 16 19 21 22 24 26 25 29 30 28 25 24 26 28 30 27 23 22 25 27 29 28 30 26 30 31 29 33 32 35 36 35 32
10 1 2 6 4 5 9 10 12 13 15 19 22 21 28 30 31 31 31 31 29 30 30 28 30 35 32 32 34 36 34 31 32 34 32 35 35 35 38 33 32 32 30
6 6 4 3 4 5 7 8 10 11 12 10 13 15 15 16 18 23 26 30 31 32 36 38 34 31 30 31 31 31 33 35 36 35 36 36 35 34 29 29 29 29 27
6 3 2 2 1 1 5 11 16 18 16 17 15 18 21 22 25 24 28 31 36 39 38 39 38 34 31 29 28 31 34 36 39 38 32 33 32 27 28 28 28 30 32
7 6 6 6 5 5 6 7 6 7 10 13 17 20 25 24 25 25 28 30 31 32 32 32 32 29 32 33 30 31 39 34 39 35 33 31 30 31 33 33 35 38 40
10 9 9 11 13 15 15 12 12 14 16 15 15 16 16 19 20 22 22 25 26 26 28 29 33 32 30 33 33 29 37 38 37 37 32 34 36 37 39 41 42 43 44
16 18 19 18 19 16 15 15 12 13 14 17 16 17 18 21 23 25 25 26 27 28 28 29 30 31 31 28 29 31 38 37 37 37 39 42 45 45 44 46 47 50 52
17 18 19 20 19 17 18 17 16 15 17 17 17 17 19 21 23 25 26 28 29 30 29 28 28 27 28 30 34 36 38 41 43 45 47 50 51 54 57 55 56 57 57
16 18 21 19 18 17 19 21 21 21 22 21 22 22 22 24 26 27 29 29 29 30 30 30 32 33 35 37 38 39 41 46 47 45 48 50 49 51 49 48 51 53 52

GFSMA_500_spd_009.txt.gz
Wind_Speed
18 20 23 31 27 24 25 28 27 23 22 22 21 19 18 17 18 18 17 15 18 15 14 13 12 12 12 10 10 13 9 7 8 9 6 2 2 3 5 7 8 7 6
20 20 18 26 28 25 25 22 32 29 24 23 22 21 20 18 19 18 18 18 17 15 18 14 12 13 13 13 12 12 10 11 12 11 7 5 2 2 3 4 5 7 7
20 24 22 26 30 27 25 24 27 32 31 27 25 24 26 17 19 18 16 17 23 18 18 17 14 14 15 15 15 16 15 13 11 11 9 7 6 4 3 2 3 6 7
21 22 25 28 31 30 30 27 28 29 32 34 28 24 24 22 20 20 17 20 25 14 14 16 16 15 15 16 18 16 17 16 13 9 9 8 7 8 7 4 5 6 7
23 25 27 30 31 31 30 29 29 31 28 33 34 28 26 26 23 21 18 23 16 16 15 14 15 14 15 14 13 13 16 12 14 11 15 13 11 9 9 8 8 9 9
32 33 33 32 32 31 30 29 30 28 34 37 39 29 28 27 24 23 19 17 18 18 18 17 13 16 16 14 13 16 21 16 16 17 17 17 15 13 14 15 12 10 11
27 28 31 34 35 35 33 31 29 24 25 30 35 35 33 31 29 25 24 18 17 16 19 18 16 17 15 16 15 19 15 15 19 20 19 19 17 18 16 15 15 14 13
22 18 20 28 33 35 35 31 28 26 22 25 33 33 33 32 31 27 23 18 19 19 20 19 19 20 20 19 19 18 18 18 20 24 23 25 19 18 18 19 18 17 17
19 19 20 22 29 33 33 31 28 25 24 22 35 34 35 35 32 28 25 23 22 21 22 21 22 23 22 19 18 17 19 21 22 23 23 24 23 20 20 21 19 19 19
14 19 22 24 26 31 31 31 28 26 23 22 26 35 37 36 32 29 28 29 29 25 24 23 24 24 23 21 18 13 11 13 17 24 26 29 26 24 21 24 22 20 21
14 15 19 21 23 30 29 28 27 25 24 23 26 30 32 37 35 31 28 33 29 27 24 23 27 25 24 24 20 18 18 16 15 16 17 25 23 22 20 21 18 22 20
10 12 12 16 18 25 29 26 28 26 23 20 21 26 28 30 33 35 30 28 30 30 27 24 28 24 25 25 22 20 20 20 19 20 19 20 21 22 23 24 25 26 23
7 7 8 9 18 22 24 24 28 26 23 20 20 23 26 27 29 31 35 34 30 30 30 26 32 24 26 24 22 22 22 23 23 24 24 22 23 26 27 25 26 26 26
8 8 6 8 12 16 19 21 25 27 26 22 22 23 26 26 29 32 31 35 39 36 36 31 29 25 26 25 23 22 24 26 25 27 29 30 28 30 28 27 27 24 25
8 5 6 7 11 16 19 21 23 27 28 27 24 25 24 28 29 31 31 30 30 30 34 30 27 27 24 22 21 24 22 25 24 24 27 23 26 28 27 25 25 24 21
7 6 4 4 9 10 14 17 18 21 24 26 26 25 25 26 28 31 32 25 27 28 26 29 26 29 23 27 27 26 26 25 24 26 23 27 33 29 27 26 27 28 32
8 9 6 1 5 7 10 12 13 16 19 22 23 23 22 25 26 24 30 29 27 27 28 28 29 23 19 23 21 29 31 32 38 32 32 35 30 29 31 30 29 31 36
12 7 8 6 0 5 9 11 12 13 17 20 21 21 21 20 22 23 23 24 26 22 27 30 33 29 27 27 31 33 30 32 29 34 36 33 36 34 35 32 33 35 38
9 7 3 7 4 1 4 8 9 8 12 15 17 19 22 21 22 25 26 22 26 28 29 33 30 32 34 33 36 35 37 36 38 38 39 36 35 36 37 38 39 39 42
8 7 6 4 7 4 4 5 9 11 11 11 11 11 20 20 20 27 29 28 25 29 31 35 34 35 34 34 40 44 43 43 42 42 40 37 37 38 39 41 37 38 38
11 9 8 7 6 6 6 9 12 15 17 18 16 15 15 17 17 20 24 25 27 28 30 35 35 38 39 38 40 35 36 35 32 34 36 39 39 43 34 36 35 35 34
11 11 10 9 10 11 12 13 12 11 11 12 14 18 21 23 24 29 29 27 27 28 30 31 32 35 35 31 24 27 29 29 32 31 31 34 39 42 41 31 31 33 36
14 14 13 14 14 13 14 17 17 16 15 15 17 19 20 20 21 23 24 29 28 27 29 30 31 30 30 35 36 34 37 33 37 37 37 41 43 38 37 33 37 37 40
15 17 18 19 19 18 16 13 12 13 14 14 17 20 21 22 23 24 25 27 29 30 30 31 32 32 31 33 33 32 32 34 40 40 40 37 37 39 38 41 43 47 48
14 17 18 19 19 18 18 19 17 18 18 18 16 18 20 22 25 27 27 27 29 29 30 31 32 33 32 32 34 30 32 37 39 41 42 47 48 45 48 51 54 56 56
14 15 17 19 20 20 21 21 21 23 25 23 22 21 22 24 27 27 28 29 31 32 33 34 33 35 35 35 36 38 40 41 45 48 49 51 53 55 58 55 55 56 54

GFSMA_500_spd_015.txt.gz
Wind_Speed
11 16 18 22 21 23 22 22 19 18 16 15 16 21 17 21 17 15 15 13 13 13 9 12 11 4 5 5 6 6 6 4 5 6 6 4 5 3 2 3 4 6 8
11 20 21 21 23 24 26 26 25 23 19 20 18 20 19 14 16 17 16 16 15 14 13 11 10 6 6 7 7 8 9 9 8 9 9 7 7 5 5 4 4 5 6
17 21 24 24 24 24 24 27 28 25 25 20 23 21 22 21 20 16 17 17 15 14 15 14 12 9 10 9 10 10 11 12 12 12 10 9 10 9 8 7 6 6 7
16 20 22 23 25 24 25 24 29 30 26 23 19 26 24 23 21 20 22 19 16 14 14 16 14 15 13 12 13 12 12 12 12 10 12 12 14 13 12 11 11 9 8
21 22 24 25 26 24 26 27 27 29 27 25 22 25 30 24 22 21 23 25 15 16 14 18 16 16 14 14 13 12 11 10 13 14 13 14 16 15 15 14 14 14 13
24 25 27 30 30 29 28 29 30 30 30 28 26 25 28 27 27 23 22 22 17 16 15 13 15 15 13 12 13 12 11 11 14 14 14 17 17 19 17 17 18 18 18
28 26 25 30 35 35 34 31 31 30 30 30 28 27 27 28 32 30 25 25 21 18 17 19 20 17 18 15 15 12 14 14 13 13 16 17 20 19 22 21 22 21 21
24 24 22 22 25 25 26 32 31 31 30 27 27 28 26 28 28 28 29 30 24 21 18 19 19 19 18 18 18 17 17 16 15 17 21 16 19 23 23 24 23 26 21
22 22 21 23 22 23 23 25 29 29 30 28 26 26 24 22 27 29 34 31 29 24 21 28 20 20 21 21 21 20 19 18 16 19 22 21 24 21 27 29 30 26 25
23 24 22 23 24 23 22 22 21 25 28 28 27 26 25 22 23 27 32 30 29 25 21 22 17 19 21 22 24 23 20 20 19 18 17 18 21 29 25 28 31 31 29
24 21 21 22 21 21 24 27 23 22 25 28 29 27 26 22 25 26 27 30 29 26 24 25 27 25 24 26 24 25 22 23 24 22 22 23 23 25 24 28 33 34 31
19 14 17 19 18 19 23 24 24 24 26 26 28 26 24 24 21 28 28 30 30 29 28 26 29 32 32 28 25 26 28 27 26 26 25 25 27 25 25 29 27 29 31
16 15 16 15 15 16 17 20 24 25 24 25 28 27 25 24 24 25 29 34 33 32 32 32 31 29 32 32 31 24 25 28 30 32 27 26 28 29 30 31 29 27 30
11 11 12 12 10 7 11 13 17 18 20 23 26 25 25 25 26 25 27 26 27 33 35 37 35 34 31 30 31 32 32 30 30 32 29 26 28 31 30 29 28 31 30
9 12 12 8 5 4 3 6 11 15 17 20 24 25 25 27 27 20 19 23 26 30 32 32 32 34 35 37 36 36 36 31 33 33 31 29 27 30 32 34 32 33 35
11 8 11 8 5 2 2 5 9 13 17 20 24 25 26 26 22 20 19 21 24 27 29 30 30 31 32 35 35 37 33 29 31 33 31 32 30 32 35 33 33 33 37
11 5 12 12 7 4 3 3 7 12 16 18 21 25 28 28 26 24 24 25 26 28 30 31 34 33 31 31 26 30 37 36 35 34 35 38 37 36 37 38 34 37 38
10 14 10 10 11 7 4 3 4 7 10 13 15 20 24 25 26 27 28 27 27 28 27 25 28 31 33 32 33 34 34 39 35 31 37 38 39 40 41 42 43 42 43
9 9 10 11 10 8 7 4 2 5 7 10 13 14 17 19 22 24 26 26 31 27 26 28 29 31 32 33 35 34 36 40 42 43 41 41 43 45 45 44 43 47 43
9 9 8 9 9 9 8 6 6 8 7 12 12 16 20 22 19 26 28 22 23 23 26 30 28 30 28 29 30 33 38 39 43 44 46 43 45 45 46 48 50 51 51
9 9 9 8 8 8 8 9 9 9 9 9 8 8 12 15 16 18 19 20 21 20 23 22 22 24 28 30 32 32 35 38 37 38 41 43 46 43 36 36 33 34 36
10 10 9 9 10 9 8 9 10 10 10 12 12 13 13 14 15 18 21 23 24 27 26 25 30 31 31 31 31 30 33 33 35 36 37 40 46 47 45 41 34 41 40
13 14 12 12 12 12 11 10 10 11 11 11 12 13 16 17 18 20 22 23 24 23 25 29 30 29 29 30 31 34 35 36 36 35 38 40 39 35 34 39 40 41 42
12 13 14 13 13 13 13 14 13 14 15 17 18 19 21 22 23 24 24 24 26 26 27 29 31 32 33 32 33 35 36 36 37 36 36 35 35 35 37 39 45 49 44
15 17 17 17 18 18 18 18 19 18 18 21 24 27 28 28 27 26 25 25 25 26 26 27 29 31 33 33 34 36 36 36 36 36 35 37 37 38 41 45 42 45 46
22 22 22 22 23 22 23 23 25 25 23 25 28 29 29 30 30 29 26 27 28 27 29 30 32 32 32 30 29 29 29 30 31 34 35 36 37 39 42 43 46 51 55

GFSMA_500_spd_021.txt.gz
Wind_Speed
11 17 22 25 15 20 17 16 10 21 18 17 16 13 16 18 23 25 24 24 20 17 16 15 11 12 14 19 11 8 7 4 5 5 4 4 3 3 1 1 1 2 2
8 15 19 26 21 19 23 16 15 20 21 19 19 21 21 15 22 26 27 28 22 19 16 15 14 13 7 7 9 10 8 7 8 8 6 6 7 7 6 5 2 1 2
11 11 14 12 18 21 22 20 4 20 18 21 22 21 21 19 17 15 24 23 22 18 17 15 17 15 8 9 10 11 10 9 9 11 11 10 10 10 11 10 8 6 4
14 13 15 16 19 18 19 22 18 18 24 24 25 25 23 23 20 19 18 16 18 17 17 16 16 14 13 15 19 19 11 11 12 11 14 12 11 13 13 12 11 11 9
18 19 18 20 22 23 22 21 22 21 21 22 22 26 25 22 21 22 21 20 20 19 20 19 18 17 14 18 21 14 13 13 14 13 14 15 11 13 14 16 16 14 13
17 20 23 25 27 27 27 28 26 24 21 21 23 27 25 26 22 23 27 24 25 20 16 19 25 21 18 15 12 11 17 16 13 12 11 18 16 14 16 18 19 18 17
22 23 23 20 21 22 23 22 25 24 24 24 24 26 28 27 24 21 27 26 32 24 21 18 25 19 16 17 16 12 11 14 15 16 18 18 19 20 18 20 21 22 22
23 23 19 19 19 19 21 22 21 21 24 29 28 28 29 30 28 25 24 29 29 27 22 20 21 19 18 20 19 16 17 15 16 18 19 18 10 11 14 21 23 23 25
21 19 18 17 18 18 19 22 22 23 22 27 31 30 29 29 30 27 26 26 30 30 26 26 22 23 21 17 17 19 17 17 17 19 19 18 18 15 15 20 22 24 28
20 17 15 16 15 14 18 21 21 22 22 21 23 30 29 28 28 27 27 26 30 30 29 30 26 26 25 20 21 16 17 17 19 21 21 20 20 20 19 17 20 27 30
19 17 15 16 15 16 16 18 20 20 21 19 20 25 27 28 27 25 25 24 24 27 31 32 31 28 25 21 23 25 24 23 24 25 23 23 24 24 25 24 24 29 29
17 16 16 17 17 17 16 16 15 17 18 24 21 22 25 27 26 25 26 25 23 23 24 18 23 29 18 26 18 28 24 27 27 29 28 26 27 29 29 28 26 28 30
17 15 17 20 20 15 12 13 15 16 17 17 12 25 23 24 25 25 24 24 21 22 22 29 28 31 27 30 30 32 31 28 30 33 35 32 30 27 30 32 31 30 31
15 15 16 18 14 11 10 10 9 9 11 14 16 17 19 22 23 24 22 21 24 23 23 29 31 31 34 33 33 37 32 33 35 35 35 36 36 36 32 32 30 30 31
13 13 12 17 14 11 10 9 7 6 8 11 15 17 16 18 21 22 22 23 23 24 27 29 32 34 34 37 37 38 38 39 40 37 36 34 33 38 36 33 35 32 32
12 13 9 13 14 9 9 6 5 4 4 6 9 11 14 17 20 22 22 22 21 23 23 23 25 29 29 33 37 38 38 41 41 38 36 35 37 40 41 40 39 36 35
10 10 10 12 11 10 9 7 6 4 5 7 9 12 15 17 19 22 23 23 23 23 20 22 24 26 27 30 28 30 33 41 40 39 39 39 39 36 37 38 39 38 40
10 9 10 9 10 9 9 8 6 5 6 6 7 10 12 15 18 21 24 25 27 27 27 27 28 29 31 32 33 37 36 34 31 32 38 38 41 39 38 40 43 43 42
6 8 7 8 8 9 10 10 10 9 10 8 8 11 13 14 15 18 21 23 25 28 30 31 31 31 37 32 37 33 34 38 34 34 35 32 36 37 32 33 30 30 34
6 8 8 8 9 10 10 11 12 12 10 9 10 11 11 9 6 10 15 16 20 24 24 30 36 32 26 24 25 23 20 21 22 26 30 32 30 31 34 33 30 39 40
10 9 9 9 8 9 10 11 11 10 7 8 9 10 11 12 14 15 15 18 22 24 25 23 25 25 25 25 23 23 27 26 29 29 29 29 30 31 30 28 29 30 32
9 10 9 8 8 9 9 11 12 15 16 15 14 12 12 13 12 14 15 17 20 23 24 26 27 27 26 26 27 30 31 29 29 29 29 30 31 32 31 32 32 33 34
12 12 11 10 10 11 12 13 15 17 18 19 20 22 21 19 18 19 20 21 22 23 24 25 27 28 28 28 29 30 30 28 28 29 31 32 33 34 33 31 30 30 32
14 14 15 15 16 17 19 21 22 23 23 24 25 26 26 26 26 26 25 26 27 28 28 29 29 29 29 29 29 29 29 30 32 32 32 30 29 29 29 30 30 32 34
17 17 18 21 21 22 23 24 25 27 28 28 29 29 30 31 30 30 29 29 30 33 31 30 29 29 30 29 29 29 30 29 27 26 26 26 28 29 31 33 35 37 38
18 19 21 21 22 24 26 27 28 28 31 32 31 29 32 33 34 34 33 32 33 32 31 30 29 29 27 27 25 24 24 24 25 24 29 29 31 33 35 36 38 41 43

GFSMA_500_spd_024.txt.gz
Wind_Speed
6 9 11 16 21 19 17 21 26 25 21 19 16 12 22 20 24 24 23 23 22 19 18 15 12 13 14 16 23 14 11 7 6 7 6 5 5 5 4 3 3 3 3
5 8 13 12 20 21 17 18 26 23 17 18 14 14 19 13 17 29 27 27 25 24 22 17 15 16 14 12 14 15 11 9 9 9 7 8 7 8 8 7 4 2 2
8 11 14 12 8 14 21 22 22 27 28 10 13 15 20 22 16 22 22 27 30 25 27 21 17 16 14 10 9 10 11 12 9 11 11 11 11 11 11 12 9 7 5
7 8 13 13 12 17 16 14 16 23 12 13 14 16 22 22 22 20 19 18 23 23 21 19 17 15 14 13 15 13 18 17 12 10 10 13 14 13 13 15 14 12 11
11 14 15 19 15 15 21 19 19 21 14 16 15 22 17 24 22 22 21 18 16 19 21 20 18 17 16 13 17 21 23 20 15 13 12 16 17 14 15 16 15 15 15
11 13 15 16 21 19 16 19 20 23 24 18 17 21 23 24 20 18 18 19 22 19 22 18 18 19 18 17 18 18 14 19 17 13 10 9 14 19 18 18 19 21 20
13 14 14 13 14 18 18 15 18 24 13 16 18 25 21 21 21 21 19 22 25 27 25 24 20 19 22 22 19 19 17 13 20 16 15 15 17 19 20 18 21 21 21
14 14 13 11 10 13 16 19 18 18 20 16 21 26 22 21 24 23 23 24 22 27 31 33 24 19 19 20 19 20 24 19 16 15 17 16 15 15 15 19 24 23 22
14 14 13 10 10 9 12 16 19 18 19 21 20 22 26 25 24 25 28 26 24 24 29 28 26 27 22 20 20 17 20 22 20 20 17 17 16 14 13 13 17 20 25
15 13 14 13 12 11 11 13 16 18 18 20 19 21 24 28 25 24 27 26 23 24 26 26 28 27 26 22 24 26 21 24 22 21 19 18 19 18 18 17 18 19 21
15 14 13 15 17 17 15 14 15 17 18 18 18 15 18 22 25 25 24 24 22 22 23 24 20 18 28 22 24 30 24 27 27 25 24 23 21 23 22 23 23 25 24
13 12 12 15 18 19 16 12 11 14 15 15 15 16 14 19 20 24 24 21 22 21 19 20 23 30 29 34 20 18 15 18 20 22 26 24 23 24 26 25 26 28 28
14 13 14 15 18 15 13 11 11 11 14 15 10 12 15 17 17 20 21 22 20 22 21 21 27 30 15 22 26 21 10 15 20 24 25 27 27 29 31 30 30 27 29
13 14 14 13 17 14 11 11 10 7 6 7 9 11 12 15 16 18 20 20 20 21 24 23 26 28 26 31 34 30 33 28 29 32 33 33 33 34 34 36 36 36 31
13 14 12 14 15 12 12 14 7 6 3 4 5 7 10 12 14 17 19 20 20 20 21 25 26 27 31 33 36 35 32 34 35 39 40 40 40 39 37 37 34 34 36
11 11 12 13 12 13 13 12 11 8 5 2 2 4 7 9 11 14 16 18 20 20 20 23 24 25 25 28 32 33 32 33 36 39 40 43 45 43 38 35 36 39 42
12 10 10 11 12 12 13 12 11 9 8 6 6 7 8 10 12 13 15 16 19 19 20 22 23 24 25 26 27 29 32 31 31 35 36 38 40 43 43 44 42 39 40
11 11 10 10 11 12 12 11 11 11 11 9 6 7 9 11 12 15 16 17 18 18 20 22 24 26 29 30 31 32 35 36 38 38 29 31 34 32 37 38 36 34 32
10 11 11 10 10 11 13 13 11 10 9 8 7 9 10 10 6 9 13 16 17 19 18 17 21 24 29 32 33 32 29 31 30 32 35 31 26 29 31 32 31 30 26
13 13 12 12 12 11 11 12 12 12 10 9 9 9 12 13 10 11 14 13 15 16 17 19 22 23 23 22 28 24 24 28 25 25 25 26 30 27 28 28 26 30 31
12 13 12 11 11 11 10 10 11 12 13 13 13 13 13 12 11 13 14 15 18 20 21 22 24 26 26 28 29 29 28 30 30 30 27 29 29 28 28 28 28 29 28
13 13 13 11 11 12 12 12 13 14 15 16 17 17 17 18 19 19 19 19 19 19 20 23 25 28 31 32 32 31 31 31 31 30 29 29 28 28 30 30 30 30 29
14 15 14 14 14 14 16 16 18 20 21 22 21 21 21 22 22 23 23 23 24 24 24 24 24 26 29 31 32 32 32 32 31 30 29 30 30 31 31 28 26 25 25
15 16 17 18 19 20 21 22 23 25 27 28 28 27 28 27 26 26 26 27 28 28 28 29 30 30 30 30 31 31 33 33 33 32 31 30 28 25 25 24 25 26 28
16 17 19 19 20 21 22 23 25 27 28 29 30 29 29 28 29 29 29 30 30 32 32 33 33 31 31 30 30 31 30 31 30 26 27 24 25 24 27 28 30 30 32
20 19 21 21 21 21 23 25 26 28 30 31 32 32 31 31 33 33 34 31 30 31 32 34 33 32 31 31 30 29 26 25 24 23 24 25 27 28 28 29 31 33 36

GFSMA_500_spd_027.txt.gz
Wind_Speed
7 3 2 5 11 16 16 16 15 16 17 21 24 23 25 25 27 22 21 23 19 18 18 17 16 15 18 14 14 15 17 13 9 10 10 8 7 7 5 4 4 5 5
3 3 3 8 8 9 14 17 13 14 21 15 29 27 24 21 22 24 25 25 24 22 19 20 17 18 18 16 16 12 18 15 12 9 11 11 10 9 8 9 7 5 6
5 4 5 5 8 5 8 13 20 20 24 23 23 23 25 22 18 13 16 27 27 26 23 17 19 21 16 15 11 8 14 12 12 12 14 14 13 12 12 13 12 11 8
5 6 8 9 9 9 9 10 16 14 15 11 19 25 23 21 21 16 15 20 23 24 24 25 24 19 18 13 11 13 14 11 14 14 14 15 16 17 15 15 15 15 14
7 10 11 12 12 12 15 15 16 16 17 14 13 16 18 17 23 20 19 21 20 19 17 20 21 18 18 16 15 16 20 19 20 20 18 18 19 20 16 17 18 17 20
8 10 15 15 13 15 15 14 15 16 15 15 22 20 18 19 18 21 23 23 22 17 16 18 18 18 17 19 17 17 23 21 19 20 18 21 16 16 18 20 18 22 22
10 13 13 13 12 15 13 15 14 14 18 20 16 24 17 18 18 22 24 20 20 17 20 20 20 20 18 17 22 27 22 18 19 23 24 21 18 21 17 20 27 26 24
5 6 10 11 10 10 13 15 14 16 17 22 16 11 15 18 18 21 23 21 20 20 17 24 24 24 24 27 24 24 26 23 23 18 24 22 20 20 21 18 19 23 25
7 4 5 5 7 8 12 13 14 17 17 16 16 18 16 19 19 22 24 22 21 23 20 19 24 28 31 33 27 28 26 22 27 29 26 21 23 21 20 17 16 21 22
5 4 4 3 5 8 10 13 14 16 17 19 17 18 20 21 20 22 21 25 25 26 23 21 22 26 29 30 31 33 32 27 25 30 29 28 25 21 20 20 19 17 18
7 8 6 6 7 10 11 11 11 12 15 17 19 19 17 17 18 24 22 21 22 22 23 23 23 23 27 27 29 31 23 26 33 32 36 33 28 24 21 23 21 21 23
7 7 5 7 11 10 9 10 10 10 12 15 14 17 16 12 14 16 22 21 20 18 20 20 21 22 24 24 31 33 34 22 33 31 26 24 22 23 23 21 22 23 24
10 9 11 9 12 11 12 11 10 8 10 12 11 9 14 13 11 13 15 18 20 19 19 20 23 23 27 26 26 27 15 22 15 14 20 21 22 21 22 23 25 27 30
11 12 11 11 13 13 13 13 9 8 5 3 5 9 9 13 12 11 11 15 17 18 18 20 25 25 26 25 30 27 27 18 21 23 25 23 23 28 31 29 30 30 33
11 10 13 14 12 13 12 11 11 10 7 3 1 4 7 6 8 10 11 16 14 17 19 19 22 22 23 24 26 28 25 25 27 31 31 33 36 36 37 39 40 41 37
11 8 11 11 12 11 12 12 12 11 9 6 4 2 1 2 5 5 7 10 12 14 16 20 22 24 23 23 21 21 22 22 23 25 29 33 31 33 35 36 41 42 40
11 9 9 11 10 11 12 12 12 11 10 6 5 4 5 4 4 5 7 10 13 15 16 17 20 22 25 26 25 23 24 27 29 29 30 32 32 34 34 34 33 35 39
10 10 9 9 11 12 11 10 10 9 9 9 8 7 11 5 2 4 5 8 11 15 18 18 19 22 25 27 29 28 27 26 26 30 26 26 27 29 33 27 27 27 29
12 10 10 11 10 10 10 11 12 13 12 10 11 12 13 12 9 7 7 8 9 11 13 16 19 20 19 22 23 20 23 26 24 22 26 26 22 22 24 31 24 26 26
12 12 10 10 10 9 8 8 8 8 9 9 8 7 6 6 8 9 10 11 11 11 13 14 15 18 19 20 22 24 27 29 28 29 29 29 29 27 27 26 25 25 27
11 10 10 10 9 9 9 8 7 8 10 11 12 13 13 13 13 12 12 14 16 17 17 19 20 22 24 25 27 28 28 28 29 30 30 30 30 30 29 29 28 28 28
13 13 11 9 9 10 12 13 14 15 17 19 21 21 21 20 19 19 17 17 17 18 20 22 23 24 25 28 30 33 33 33 32 32 32 31 31 29 30 31 32 33 33
13 13 13 13 12 13 14 16 19 19 21 23 24 25 26 26 25 24 24 22 21 21 21 23 25 27 28 30 31 31 31 32 34 35 35 34 33 32 31 29 27 26 25
13 14 13 13 14 15 16 18 20 20 22 22 23 25 26 28 27 27 27 26 25 24 25 26 28 29 29 30 31 31 30 31 33 33 35 34 32 31 27 25 24 24 26
17 17 16 16 16 16 16 18 20 20 23 25 26 26 28 29 30 30 31 31 31 28 29 29 29 30 31 33 31 31 31 32 30 31 31 27 27 27 26 27 28 29 30
14 13 13 12 14 20 21 20 22 25 27 28 28 29 30 30 31 32 33 33 32 31 31 31 34 32 34 33 32 32 30 28 28 28 27 26 26 26 27 29 30 29 30

GFSMA_500_spd_030.txt.gz
Wind_Speed
9 7 5 6 7 14 14 14 15 15 17 17 18 20 22 22 17 23 28 24 25 22 20 16 14 15 14 13 14 16 19 19 12 10 11 10 9 8 8 7 8 7 8
7 5 3 6 9 8 13 15 17 16 14 16 18 16 25 22 20 23 28 27 24 25 22 19 19 17 15 15 15 16 18 17 13 12 11 13 12 12 11 12 10 9 10
8 5 4 7 9 9 8 13 17 22 21 19 20 26 26 28 26 22 23 29 27 26 24 23 21 20 16 16 15 12 7 14 15 16 14 14 14 15 14 15 15 14 12
7 8 7 9 10 10 13 13 14 18 19 19 20 14 21 23 25 22 19 21 26 28 27 27 25 23 23 19 15 13 13 13 15 16 15 17 18 20 18 18 19 19 19
10 10 13 13 12 12 14 18 17 17 18 18 19 16 20 28 23 20 25 20 20 21 23 22 23 23 22 19 17 16 17 21 21 19 18 21 23 22 19 20 21 21 23
10 12 13 14 12 12 16 15 16 19 20 21 20 18 15 17 19 21 28 24 24 20 21 19 18 21 21 21 20 19 20 19 22 24 27 28 28 25 22 21 22 20 22
9 13 11 12 12 12 12 16 15 18 20 21 20 20 22 26 22 23 22 22 23 22 22 21 21 22 21 21 21 22 23 25 22 23 24 26 28 27 23 19 20 22 24
10 10 10 10 10 12 12 12 16 17 19 21 21 23 18 22 23 21 20 21 24 21 22 21 23 24 24 25 27 26 23 28 32 27 28 27 32 30 29 26 27 27 27
10 8 10 10 11 10 10 13 13 16 20 20 19 18 17 13 20 21 21 20 20 22 24 22 20 23 28 29 31 30 28 26 29 31 27 31 28 34 31 28 26 23 20
10 9 10 10 8 11 12 13 15 17 19 19 18 18 18 17 19 20 22 21 20 25 25 22 23 23 24 28 33 32 31 33 32 32 30 31 37 32 33 32 28 25 23
8 6 6 6 8 10 11 10 10 12 16 17 17 19 19 20 19 20 24 21 20 23 25 25 24 25 24 24 29 31 28 29 27 30 29 28 33 37 37 36 31 29 28
6 5 7 6 7 8 7 8 7 7 11 13 15 16 19 21 20 18 19 22 20 19 20 22 23 23 21 20 24 20 23 27 22 31 31 34 37 43 35 32 29 28 29
5 4 4 4 6 6 7 9 8 7 7 8 11 14 15 18 17 14 17 20 19 20 21 22 22 22 23 25 25 22 23 13 22 20 33 22 28 26 25 25 24 25 25
4 3 4 4 5 7 8 9 9 8 6 5 5 8 8 10 11 11 14 8 13 15 19 22 21 22 22 23 23 22 24 23 21 19 22 23 23 25 29 28 26 28 30
6 3 4 6 6 9 11 10 10 8 8 4 2 1 5 6 7 12 11 12 18 21 17 19 20 20 19 20 19 21 18 19 20 18 19 23 26 28 29 32 35 37 38
8 7 6 6 8 10 10 10 11 10 10 7 5 4 3 1 4 7 10 13 11 11 14 16 18 21 21 21 21 22 19 18 19 20 20 23 25 24 28 31 32 33 36
8 8 7 7 8 9 10 8 9 10 11 9 9 7 5 1 3 4 6 9 10 12 15 16 19 21 21 21 23 24 23 23 24 23 21 22 23 22 21 21 25 28 30
7 7 9 8 8 7 8 10 12 11 9 7 7 8 12 9 5 2 3 5 9 13 15 17 18 20 22 23 19 18 21 17 17 17 22 18 18 20 25 23 20 20 22
8 8 7 7 6 5 6 7 8 9 9 9 9 9 8 8 7 8 9 10 12 11 12 13 14 16 18 20 20 19 18 19 21 22 24 24 24 25 27 28 28 30 29
8 9 8 7 4 4 3 3 3 3 3 4 6 7 8 9 10 12 12 13 14 15 16 16 17 18 19 20 21 22 22 24 24 25 26 27 28 29 31 29 29 29 29
8 9 8 8 6 4 3 4 5 6 8 9 11 12 12 13 13 14 15 16 16 18 20 22 23 24 25 26 28 29 31 34 36 36 34 32 30 29 29 30 30 31 30
7 10 10 9 9 9 9 10 12 13 15 16 16 17 16 16 15 15 14 14 16 18 20 23 24 25 25 27 29 29 33 35 36 37 38 39 37 34 30 29 30 31 31
9 9 10 9 9 10 11 12 14 16 16 16 16 17 17 18 19 20 21 20 21 21 22 23 23 25 27 29 30 32 34 34 34 36 37 36 36 33 32 31 28 27 26
11 11 11 10 10 11 10 10 12 13 15 18 20 22 22 23 24 24 24 24 24 25 25 26 26 26 29 29 31 32 34 35 36 37 36 34 33 33 30 27 26 26 27
11 10 7 6 5 8 12 14 17 19 21 22 23 25 28 28 28 28 27 27 27 28 28 29 30 31 32 33 35 36 35 35 35 35 33 30 29 28 27 28 28 29 30
8 7 5 8 12 16 19 21 24 26 25 25 26 27 30 31 31 31 30 31 31 30 31 32 33 33 34 34 35 35 35 35 34 32 30 29 29 28 28 29 30 30 32

GFSMA_500_spd_033.txt.gz
Wind_Speed
11 9 6 9 14 13 15 17 18 17 17 16 17 18 20 21 23 24 21 21 23 23 22 19 16 15 14 16 15 13 14 16 15 15 11 11 10 9 8 8 7 7 9
8 7 8 9 11 11 12 18 21 21 19 18 19 17 18 20 24 23 22 21 23 23 23 22 21 18 18 19 17 16 16 21 20 18 13 12 14 12 11 12 10 9 10
11 9 10 10 12 11 10 14 18 21 21 19 18 19 20 24 21 22 22 19 25 24 24 23 24 22 21 22 19 17 16 12 9 15 14 13 14 16 15 15 14 14 13
10 9 11 10 13 13 12 15 15 17 18 22 24 23 23 25 24 28 23 20 21 29 27 26 27 26 24 23 22 21 16 11 12 15 16 16 16 17 19 19 19 18 18
12 15 12 12 15 14 16 17 20 19 21 20 22 20 19 20 14 17 19 22 19 21 26 28 28 29 28 25 25 21 18 17 18 17 18 19 18 20 22 21 22 23 22
13 14 13 13 15 16 18 19 22 22 24 23 21 20 19 18 18 23 21 24 23 24 21 22 22 24 23 25 24 22 21 21 21 22 24 26 26 27 28 24 23 26 26
8 10 14 12 14 16 18 18 18 20 22 21 20 21 19 19 20 19 25 24 26 26 25 24 22 21 21 23 24 21 25 23 22 22 23 24 28 26 27 27 27 25 24
9 11 10 11 12 15 14 15 16 18 22 22 20 20 19 19 17 22 24 26 25 27 26 24 24 22 23 25 25 25 26 25 20 24 27 30 26 26 26 27 28 28 26
10 9 9 10 12 14 12 14 16 19 19 19 20 20 19 18 22 22 25 24 23 24 27 26 25 23 21 25 28 29 33 30 25 24 29 23 31 28 29 29 33 33 34
11 9 7 9 11 14 15 16 18 19 22 19 17 20 20 19 17 15 24 22 22 22 24 26 25 22 22 23 25 25 30 34 31 33 30 31 31 31 34 34 35 38 36
11 8 8 8 10 12 14 14 15 14 15 16 17 17 18 19 19 21 15 20 21 22 23 25 23 23 24 25 25 26 28 23 23 31 31 32 29 37 37 33 39 37 32
7 7 7 8 9 13 10 11 13 14 12 12 12 14 15 18 21 20 18 22 22 24 19 20 23 23 24 24 24 24 23 21 18 16 22 19 26 27 31 36 38 43 39
5 7 7 6 8 8 8 9 9 8 8 7 8 11 12 13 17 19 21 22 17 22 18 19 19 19 19 19 22 24 23 21 19 16 15 18 14 30 30 29 35 33 33
3 4 4 5 3 5 5 6 7 7 5 4 4 4 7 8 9 16 18 10 15 17 17 20 21 21 19 18 21 21 19 18 16 15 15 15 18 18 19 23 26 28 29
3 2 4 4 5 5 6 7 7 5 6 4 1 3 2 4 5 5 4 9 11 12 18 20 19 18 19 19 20 21 21 21 19 21 20 19 19 20 21 23 26 29 33
4 4 4 4 6 6 6 6 9 7 6 6 4 3 3 2 2 2 4 8 11 13 12 12 15 17 18 20 21 22 24 23 23 23 24 24 23 24 26 26 27 29 32
2 3 5 5 6 6 5 5 6 8 8 9 10 10 8 5 4 4 4 5 7 8 9 13 15 17 17 18 19 19 20 23 19 21 25 28 28 26 25 26 26 26 27
2 2 3 5 5 4 4 8 9 9 9 10 12 12 12 11 10 9 8 8 9 10 10 12 14 15 16 17 19 20 20 19 18 20 21 24 25 25 27 28 29 30 32
3 4 4 4 4 1 0 3 3 2 3 4 6 6 6 7 8 9 9 9 11 12 12 12 13 14 15 17 17 17 18 20 20 21 22 23 25 27 28 30 31 31 32
3 5 4 4 4 3 3 4 4 4 6 7 8 9 11 12 12 13 15 15 15 16 17 17 19 21 22 22 22 23 24 27 27 28 28 29 30 31 31 31 33 35 35
6 6 6 7 6 5 6 7 6 7 9 11 12 14 16 16 16 15 14 14 14 15 19 21 24 26 28 30 31 31 32 33 33 35 37 37 38 38 38 35 34 34 35
9 8 8 7 8 7 7 10 10 11 11 12 13 13 13 14 14 14 16 19 20 21 22 24 26 28 29 32 34 35 36 37 38 38 40 40 39 40 40 38 37 34 33
7 10 12 10 9 8 9 9 8 7 8 8 10 13 16 17 18 20 21 22 23 24 26 26 28 29 30 33 34 36 37 38 39 39 39 41 41 40 40 39 37 35 32
9 9 12 12 12 10 7 7 8 9 11 14 17 19 20 21 22 22 24 25 26 28 29 31 33 33 33 33 35 36 38 39 40 42 43 41 40 39 37 34 31 29 28
10 7 6 5 6 7 11 15 15 16 18 19 18 20 22 24 24 24 26 27 29 30 31 33 33 34 34 35 36 38 39 41 42 41 40 39 37 35 32 31 31 31 30
11 8 7 10 14 17 19 20 19 18 17 20 23 24 25 27 29 29 30 31 32 32 33 34 34 36 35 35 37 38 39 40 41 41 38 36 34 33 32 32 33 32 32

GFSMA_500_spd_036.txt.gz
Wind_Speed
12 10 10 10 13 16 16 18 16 16 15 15 16 18 18 19 22 23 22 21 23 24 21 19 18 16 14 13 14 13 12 12 15 16 13 12 11 8 7 7 6 6 7
10 7 10 9 9 13 13 15 18 18 18 18 17 18 18 20 22 24 24 26 24 26 25 23 21 18 16 16 15 15 16 14 18 22 21 14 13 12 10 10 10 9 8
8 10 10 8 9 11 14 15 13 18 19 20 19 16 17 20 22 22 22 27 27 22 26 24 21 21 19 19 18 17 15 15 15 9 12 13 11 12 14 14 13 13 13
10 11 13 11 11 13 13 14 14 15 14 16 20 23 21 21 24 27 30 27 22 22 23 26 23 21 22 22 21 18 19 16 12 11 11 13 14 14 13 15 16 17 17
12 15 13 14 14 16 16 17 17 18 18 20 20 18 20 21 22 22 21 24 23 21 20 25 26 24 24 24 23 23 22 19 16 18 17 17 17 17 16 16 18 19 21
16 14 16 14 15 16 19 17 18 21 23 24 22 21 20 21 20 16 19 19 21 19 19 20 22 24 24 24 26 27 23 17 20 22 23 22 24 24 24 24 25 22 21
7 9 12 16 17 16 15 17 17 17 21 22 20 22 21 21 21 19 17 22 22 21 20 24 22 22 20 21 21 24 24 22 22 22 25 25 23 23 23 24 23 22 24
7 11 13 12 12 11 13 13 15 17 18 19 20 22 20 21 20 20 18 22 23 23 20 24 24 24 21 19 19 22 21 20 23 24 28 25 21 26 27 22 24 23 26
9 12 11 10 11 12 13 13 15 16 17 19 19 18 20 19 20 21 20 22 25 23 24 24 23 23 22 19 21 21 24 26 29 30 34 29 26 29 30 27 27 27 26
9 10 8 9 11 11 11 15 17 17 18 18 20 20 18 19 19 19 16 20 21 22 21 21 20 24 22 19 21 20 20 22 24 27 29 34 33 29 26 30 30 32 26
8 7 6 6 7 9 12 16 17 18 19 18 17 15 15 16 17 16 17 16 19 20 22 20 22 24 22 22 21 22 23 22 21 17 23 22 24 24 25 26 29 29 29
6 6 7 7 6 9 13 14 15 15 15 15 12 11 11 12 13 15 18 14 13 17 18 20 22 24 24 23 23 24 22 21 26 19 17 15 14 22 24 27 27 30 35
4 4 5 6 7 8 10 10 12 11 11 10 8 8 8 10 12 12 14 16 17 16 18 18 19 18 20 21 21 20 19 18 17 16 17 16 17 17 14 19 30 32 34
4 2 3 5 5 4 5 8 11 9 8 5 5 5 5 5 6 7 12 14 11 14 20 20 19 19 19 20 21 20 21 18 17 18 20 21 21 21 20 20 22 24 25
2 1 1 2 4 5 6 7 8 6 8 5 5 5 4 3 3 6 5 7 6 7 9 13 17 16 16 18 19 20 20 21 21 20 21 23 22 22 22 22 23 25 26
0 0 1 2 4 7 6 3 6 6 7 8 7 6 5 5 4 2 9 4 4 7 6 9 12 12 14 15 17 19 20 20 19 20 22 23 25 28 27 24 24 28 31
3 2 1 2 4 5 3 2 2 5 8 13 15 15 13 11 9 8 5 4 3 4 6 8 8 10 12 15 18 21 21 20 21 21 22 24 24 22 21 24 27 26 25
3 3 4 3 2 1 1 5 6 6 5 5 7 7 8 8 8 7 6 6 7 5 4 6 7 9 12 14 16 18 19 21 22 21 22 23 25 25 26 27 30 31 33
4 4 3 3 2 2 3 3 3 2 2 4 5 7 9 10 10 10 10 10 11 12 12 12 13 13 15 18 20 21 21 22 24 25 26 28 30 31 31 32 33 34 35
4 5 5 3 4 4 4 6 6 6 7 9 10 11 13 14 14 14 13 12 13 13 14 16 17 19 21 23 25 26 28 29 30 32 33 34 35 36 36 38 37 38 38
7 7 7 6 5 7 7 8 9 10 11 13 15 15 15 14 12 12 13 13 15 17 19 21 23 24 26 28 30 32 33 35 36 36 37 39 39 40 41 42 42 43 42
8 10 9 9 8 8 8 10 12 13 13 12 11 11 11 13 15 15 15 17 18 21 22 23 25 28 30 32 34 35 37 39 41 42 43 44 44 44 44 43 44 46 45
5 7 8 10 10 9 9 10 9 9 9 9 10 12 16 17 17 18 19 19 20 22 24 26 28 30 32 34 37 39 41 42 43 45 46 46 46 45 46 46 47 46 44
6 8 9 7 7 7 6 7 9 10 11 14 17 18 17 17 19 21 20 22 25 26 28 30 31 32 33 35 37 39 41 43 43 44 44 45 46 47 46 45 43 41 40
7 8 7 5 4 6 8 12 15 16 16 16 16 18 20 20 21 23 25 27 28 30 32 33 35 35 35 36 37 38 39 40 41 42 42 43 44 44 42 40 38 37 35
7 10 11 13 14 15 16 15 15 17 17 20 23 23 24 25 27 28 28 30 33 35 36 37 38 38 37 37 38 39 39 40 40 40 39 40 40 39 38 37 36 36 36

GFSMA_500_spd_042.txt.gz
Wind_Speed
10 11 7 7 9 5 10 11 12 12 12 12 13 15 17 17 17 17 18 18 17 17 16 17 19 17 19 18 17 15 14 12 12 11 11 11 12 12 10 9 8 7 6
8 10 7 5 6 4 6 7 11 13 14 14 14 15 16 16 17 18 20 20 20 20 21 21 20 20 22 19 17 19 18 17 15 16 15 15 19 18 14 13 11 10 9
6 7 6 6 4 4 7 8 10 11 13 16 17 17 19 19 19 18 18 19 19 19 19 21 25 23 24 23 22 23 21 20 17 15 15 16 17 21 17 16 15 14 13
9 8 9 8 6 7 8 8 10 14 11 12 15 17 20 21 22 20 19 18 19 21 24 25 27 26 24 25 26 27 25 22 22 19 17 12 10 15 15 15 16 17 17
9 8 8 6 8 7 10 11 12 12 12 14 15 16 17 19 21 24 26 24 22 23 26 30 27 27 22 23 25 27 25 23 21 20 23 19 15 17 18 18 18 17 18
8 6 8 10 10 11 12 12 12 12 12 14 15 16 17 18 20 22 20 21 21 21 22 24 22 23 22 25 26 26 24 23 21 23 23 17 21 21 21 21 21 21 22
8 6 7 7 8 10 11 12 9 10 11 12 14 14 14 16 18 18 20 20 20 20 17 17 20 21 22 19 18 19 19 22 22 23 23 28 24 23 26 26 27 26 28
8 6 5 7 8 9 9 8 9 10 11 12 15 15 15 15 16 18 19 19 20 21 20 19 19 20 21 21 20 17 19 22 21 20 22 18 13 9 12 21 29 31 29
8 6 6 8 7 8 7 7 8 9 11 13 16 17 17 16 15 15 17 19 18 19 19 21 22 22 21 19 19 19 21 21 21 21 18 18 18 18 20 21 24 26 26
8 7 7 9 6 6 5 7 8 11 12 13 15 16 17 18 18 17 17 20 20 18 18 16 20 21 22 21 19 20 21 21 22 21 19 18 16 16 18 21 23 24 30
6 6 6 6 6 7 7 8 9 10 10 12 12 13 14 14 14 15 16 17 18 16 16 16 17 21 19 18 16 18 20 20 21 19 21 20 19 19 20 21 19 21 21
5 4 5 6 5 5 6 7 7 9 11 10 10 10 10 10 11 12 14 17 17 17 17 19 18 18 18 18 17 20 21 23 22 22 24 23 20 22 21 22 23 21 21
3 4 3 4 4 3 3 4 7 7 7 6 4 5 7 8 9 10 13 14 16 13 15 13 15 15 16 17 16 19 21 23 24 23 22 22 22 24 24 25 26 25 23
4 5 5 4 3 1 2 4 5 4 5 3 3 3 3 3 5 7 8 12 13 13 14 17 15 17 22 22 20 18 18 20 22 22 23 23 24 25 26 27 28 28 25
3 5 5 4 3 1 3 3 4 5 4 3 4 6 5 3 3 6 5 8 10 8 11 8 15 15 20 18 20 19 19 21 23 23 23 24 27 29 29 30 30 30 29
4 5 6 4 4 3 3 1 2 6 11 12 10 9 9 9 7 7 8 5 3 5 8 9 9 11 10 19 17 20 20 20 22 23 24 26 26 28 28 29 27 28 27
5 6 7 5 6 5 3 3 5 6 5 6 6 8 8 8 8 8 8 7 7 6 7 8 8 10 10 10 13 15 18 20 21 22 23 24 26 27 28 28 28 28 29
6 5 7 8 8 7 4 5 7 8 5 2 2 4 7 8 9 11 11 11 11 11 11 12 12 13 12 16 15 16 18 21 22 25 26 27 29 31 31 32 34 35 37
8 8 7 7 7 7 7 7 7 8 8 8 7 8 9 11 12 13 13 13 12 12 12 12 12 14 15 16 18 20 22 23 25 27 28 29 31 34 35 36 37 39 41
10 10 9 8 8 8 8 10 10 12 12 13 13 14 15 16 16 15 12 12 13 13 13 15 16 17 18 18 20 21 24 26 28 30 31 33 35 37 39 41 43 44 44
10 12 12 10 9 9 10 10 11 12 14 15 16 17 17 16 14 12 15 16 17 17 18 17 17 18 19 21 23 24 26 28 31 32 34 36 39 41 42 44 45 46 47
11 12 13 11 11 12 12 12 12 13 14 14 14 14 13 12 13 17 18 17 16 17 17 17 19 22 23 25 27 29 32 34 35 36 38 40 42 43 45 46 47 48 48
11 11 10 9 11 13 13 14 13 13 13 13 13 14 15 16 17 16 17 18 20 21 22 23 24 25 27 29 32 34 35 37 39 40 42 43 43 43 44 45 47 48 49
12 9 5 6 7 9 10 11 12 13 14 15 17 18 17 17 17 18 19 21 23 25 26 27 28 30 33 35 37 38 39 40 41 42 43 43 44 43 44 44 45 46 47
13 6 7 8 9 10 12 13 15 17 17 17 17 17 18 19 20 21 23 25 26 28 30 33 35 37 38 38 39 41 42 43 43 43 43 45 43 42 43 41 42 43 43
7 11 11 12 14 14 15 18 18 19 19 20 21 22 24 24 25 26 27 29 31 32 34 34 35 36 38 39 41 42 43 43 43 45 42 43 43 43 42 41 42 42 41

GFSMA_500_spd_045.txt.gz
Wind_Speed
11 10 10 6 7 9 10 10 10 12 10 10 12 13 14 15 15 16 16 17 18 18 16 15 15 17 18 18 19 18 19 16 14 12 12 12 13 13 13 13 11 10 10
6 5 7 7 5 5 10 11 12 12 13 12 12 13 14 15 16 18 19 20 19 21 21 20 21 20 20 22 22 22 21 21 19 18 17 18 18 17 19 17 15 12 12
7 9 8 6 6 6 8 8 7 8 10 13 15 16 16 16 16 16 17 18 18 19 21 20 21 22 23 25 28 24 23 23 24 24 21 19 19 22 22 22 19 17 16
9 8 8 7 9 12 8 7 7 8 11 12 10 13 17 17 18 18 18 17 17 19 20 22 23 24 24 26 26 27 25 26 24 20 24 24 21 19 17 22 22 20 20
12 9 7 8 6 6 8 8 10 10 10 11 11 14 15 16 17 20 21 22 22 23 22 24 26 29 31 30 26 27 27 27 27 24 21 23 26 20 17 20 19 20 20
9 8 8 9 7 8 11 11 11 11 10 10 12 14 16 19 20 21 22 21 21 22 23 21 24 27 27 23 22 24 22 22 23 22 20 20 22 20 22 20 23 22 22
10 7 6 5 6 7 10 11 11 10 9 10 11 12 14 17 19 22 22 22 23 22 21 20 21 21 20 21 24 23 25 27 21 19 19 24 15 22 18 26 28 25 26
9 7 6 5 6 8 9 8 7 8 10 11 12 14 15 15 16 19 21 22 20 20 19 18 24 25 21 23 22 21 23 20 20 21 21 20 10 8 13 15 24 29 32
10 7 6 6 6 7 7 6 7 8 10 12 13 14 15 15 16 17 19 19 19 20 16 18 17 37 16 22 20 20 20 21 21 19 17 17 16 11 11 13 14 18 20
10 8 6 7 5 4 4 5 6 8 11 12 13 15 16 16 15 17 18 18 18 20 19 17 22 21 25 24 21 19 20 21 21 19 16 15 16 15 16 16 16 18 21
9 8 8 6 5 4 5 4 6 8 10 12 14 14 14 13 13 16 17 18 18 19 19 17 19 23 22 23 19 13 16 18 17 17 16 19 20 20 18 19 20 20 21
9 8 7 4 3 2 2 4 7 9 11 11 11 11 9 9 10 11 13 17 16 17 17 17 18 21 20 19 16 17 19 20 21 20 21 22 23 22 21 21 22 21 21
6 7 4 2 3 2 2 4 6 7 7 7 6 7 8 8 8 9 11 13 15 18 18 16 17 16 16 16 16 18 21 18 21 22 23 24 24 24 23 24 24 24 25
1 1 3 3 4 3 4 4 4 4 5 2 4 6 5 5 6 7 10 13 14 19 16 10 18 18 15 15 19 21 20 16 17 20 22 23 24 24 25 25 26 28 29
1 1 3 3 3 4 5 4 2 0 1 3 5 6 8 9 9 12 16 8 9 8 10 12 15 13 16 18 22 20 18 16 19 20 22 22 23 25 26 27 27 27 27
1 1 1 2 4 6 6 5 3 5 8 9 9 8 8 8 8 10 10 12 10 10 10 11 12 11 14 17 12 11 11 17 17 20 21 21 23 24 25 26 27 27 27
3 0 1 4 5 7 6 4 6 7 5 3 3 4 5 6 8 9 9 8 8 9 9 10 10 11 13 11 11 12 12 15 16 18 20 22 23 24 26 27 28 29 30
3 2 2 5 7 8 7 6 8 10 9 6 6 6 8 9 10 11 13 13 12 11 12 12 11 11 12 13 13 15 16 18 19 21 22 24 25 26 27 29 29 30 31
4 3 5 5 6 7 8 8 8 8 11 11 12 12 13 14 16 16 15 13 12 12 13 12 13 14 14 15 16 17 18 19 21 23 25 26 28 30 31 33 34 36 37
4 6 6 7 6 6 7 8 9 11 14 15 15 16 17 18 17 15 12 11 13 15 16 16 17 18 18 17 17 19 21 22 24 26 28 30 32 33 35 37 39 40 42
5 6 8 8 8 8 8 8 9 11 14 15 16 17 17 16 14 13 13 16 17 17 17 17 17 18 19 20 23 24 25 27 29 31 32 34 35 36 37 39 42 41 42
8 8 8 9 10 10 10 11 11 11 12 13 14 14 14 14 15 15 18 19 18 17 18 19 21 23 24 25 26 28 30 32 34 37 37 38 39 40 40 41 41 42 43
11 10 9 9 9 10 12 13 13 12 11 12 13 14 15 16 18 18 19 19 20 22 22 23 25 26 27 29 31 34 37 39 40 40 42 42 43 43 43 45 44 44 44
14 12 11 9 8 8 8 10 10 11 11 13 14 16 17 18 18 18 19 20 22 24 27 27 29 30 32 34 36 38 40 41 42 43 45 46 45 45 44 43 45 44 44
12 14 11 10 10 12 13 13 14 16 16 17 18 19 20 21 22 24 26 27 29 28 30 31 33 34 35 37 38 40 41 43 44 43 44 44 43 44 43 40 42 43 42
9 14 15 16 16 16 17 18 19 20 20 20 22 23 24 27 29 31 32 31 30 31 33 35 36 37 38 39 41 43 44 45 46 43 42 42 42 41 42 41 38 40 41

GFSMA_500_spd_048.txt.gz
Wind_Speed
16 15 10 4 6 16 17 14 5 6 10 8 10 11 14 15 16 15 16 18 18 18 20 20 19 17 17 17 18 17 17 18 17 15 15 14 13 13 13 14 14 13 12
15 16 9 10 12 18 16 14 10 16 8 6 10 11 13 16 17 17 17 18 18 18 20 22 21 21 20 19 19 22 24 24 21 22 21 19 19 18 18 18 19 18 17
14 12 9 11 11 15 15 11 9 8 7 10 14 14 14 14 14 15 14 16 18 18 20 21 23 23 23 24 23 24 25 29 25 25 24 27 25 21 20 23 24 24 22
13 10 11 7 6 13 7 7 7 6 6 9 10 11 14 15 16 16 17 17 17 17 17 19 20 22 24 25 24 23 24 25 27 26 26 23 26 24 23 24 25 28 24
11 8 7 6 7 5 2 8 6 7 9 11 13 14 14 14 16 17 18 20 19 19 21 22 22 24 26 27 27 28 27 26 25 23 27 27 26 25 26 28 21 26 25
11 9 8 7 5 5 6 6 8 9 11 11 13 13 14 16 19 18 20 21 20 20 20 22 22 20 26 27 25 22 20 23 20 18 20 25 26 24 26 25 23 24 25
13 11 10 9 6 6 7 8 9 11 12 11 12 11 12 14 17 19 21 21 21 22 24 23 24 24 26 23 20 16 20 20 21 24 21 18 21 21 24 23 25 27 28
14 11 8 8 4 6 7 7 7 8 9 11 11 12 12 13 15 17 18 18 20 20 23 24 21 24 22 24 22 21 19 18 19 20 19 17 18 18 13 12 19 17 28
14 13 10 7 4 6 5 6 7 8 9 10 11 14 14 14 14 16 17 18 19 18 21 20 18 20 23 24 23 21 18 17 16 18 17 17 17 13 13 12 10 12 14
18 13 9 6 5 6 5 5 6 6 8 11 13 13 14 14 15 16 19 12 19 17 21 18 18 15 22 20 9 18 18 16 19 13 12 10 11 12 12 12 13 15 18
19 12 9 6 5 6 6 6 5 6 8 9 11 12 12 13 13 13 16 19 19 21 18 18 16 16 17 17 18 19 15 15 15 14 14 15 15 16 18 18 17 19 21
12 8 8 7 6 6 6 5 4 7 7 8 9 9 9 9 10 9 12 14 13 24 17 14 14 16 17 20 20 19 15 17 17 17 19 19 19 19 20 19 19 20 21
4 10 9 7 6 6 5 4 4 5 4 5 5 6 7 7 7 8 10 13 12 11 10 12 13 13 18 19 16 16 17 20 18 15 18 18 18 19 20 21 21 22 23
1 4 6 7 6 5 4 4 4 5 3 4 3 3 5 8 10 11 13 5 8 8 11 8 14 14 21 14 15 18 20 17 16 14 15 16 18 20 20 20 21 23 23
8 11 9 6 6 5 3 3 3 3 1 4 4 6 7 8 10 13 14 15 9 10 8 8 8 9 10 9 15 18 18 16 15 15 16 15 15 16 17 18 19 19 20
2 4 6 6 5 3 2 2 3 4 7 8 5 5 5 7 9 11 12 11 11 10 7 9 9 9 10 11 12 12 9 7 9 11 10 12 15 17 18 20 21 22 22
5 5 4 4 4 2 2 3 5 8 8 5 3 2 4 7 9 12 14 13 11 9 9 10 12 11 10 11 11 10 7 6 9 12 13 15 17 19 20 22 23 24 24
5 5 6 5 4 3 3 4 5 11 10 8 5 6 7 10 10 12 14 14 12 10 10 10 10 10 11 13 15 14 14 14 15 15 16 18 20 22 23 25 27 27 28
9 9 6 4 4 4 5 4 5 6 10 11 10 11 12 13 14 14 14 12 10 10 12 14 15 16 16 17 16 16 17 18 19 20 22 23 25 27 29 31 32 33 34
11 13 10 6 5 5 6 4 5 7 9 11 13 15 15 16 16 15 13 11 12 13 14 15 15 16 17 18 18 19 21 22 24 25 27 28 30 33 35 36 37 38 38
12 10 10 9 8 7 7 6 6 7 9 11 13 14 15 15 14 13 13 15 15 16 16 16 16 17 19 21 23 24 25 26 28 29 31 33 35 36 37 37 38 39 39
9 10 10 9 10 9 9 9 10 11 11 12 13 12 12 14 14 15 16 17 17 18 18 19 20 21 23 24 26 28 30 32 34 36 36 37 37 37 40 42 42 42 42
14 15 13 11 9 8 10 11 12 13 13 12 12 12 13 15 17 18 19 19 19 20 21 23 24 26 28 30 31 32 34 36 37 38 40 40 42 41 42 42 42 41 40
16 14 15 12 10 8 8 10 11 11 11 12 13 15 16 18 19 19 20 23 24 27 29 30 30 31 32 34 35 37 38 39 39 40 41 43 44 43 41 41 42 42 40
15 12 13 12 12 11 11 12 14 14 15 18 19 20 20 21 22 24 26 28 30 32 33 32 32 33 34 36 36 37 39 41 40 40 43 43 43 41 40 39 38 38 38
15 11 11 13 14 15 15 16 16 17 17 19 21 24 24 25 25 26 27 28 30 31 33 33 35 36 37 38 39 39 39 41 41 41 43 41 42 40 39 37 38 39 39